Temp
15 14 14 15 15 14 13 14 14 15 15 14 15 15 14 13 12 12 10 9 9 9 9 9 8 9 9 9 9 9 9 9 9 9 9 9 9 8 8 9 9 8 9 9 9 9 9 9 9
14 15 15 15 15 14 13 14 14 14 15 15 15 14 14 13 12 12 12 10 9 9 9 8 9 8 9 9 9 9 9 9 9 9 9 9 9 8 8 9 9 8 9 9 9 9 9 9 9
15 14 14 14 14 13 14 14 13 14 15 15 15 14 13 12 12 12 10 10 9 9 9 9 9 8 8 8 9 9 9 9 9 9 9 9 9 8 8 8 9 9 9 9 9 9 9 9 9
15 15 14 14 14 12 14 16 15 14 15 15 15 14 13 10 12 12 10 9 9 9 9 9 9 8 8 8 8 8 8 8 9 9 9 9 9 8 8 8 9 9 9 9 9 9 9 9 9
15 15 14 14 13 14 14 16 15 14 15 15 15 14 12 10 11 11 11 9 9 9 8 8 8 8 8 8 8 8 8 8 9 9 9 9 9 9 8 9 9 9 9 9 9 9 9 9 9
14 14 14 15 14 14 15 15 15 14 16 15 15 15 12 10 11 11 10 9 9 9 8 8 8 8 8 8 8 8 8 8 8 9 9 9 9 9 9 8 9 9 9 9 9 9 9 9 9
13 14 14 15 16 13 16 16 16 16 16 15 15 15 14 12 11 11 10 10 9 9 9 8 8 8 8 8 9 9 8 8 8 8 8 8 8 9 9 8 9 9 9 9 9 10 9 9 9
13 12 14 15 17 17 17 16 16 17 16 16 15 15 15 13 10 10 10 10 9 9 9 8 9 8 9 9 9 9 9 9 9 8 9 9 9 9 9 9 9 9 9 9 9 9 9 9 9
14 12 14 16 17 17 17 16 16 16 17 15 14 15 15 14 12 11 10 10 9 9 9 9 9 9 9 9 9 9 9 9 9 9 9 9 9 9 9 9 9 9 9 9 9 9 9 9 9
14 15 16 17 17 17 17 17 16 16 16 16 16 15 15 15 13 12 11 10 9 10 9 9 9 9 9 9 9 9 9 10 10 9 9 9 9 9 9 9 9 9 9 9 9 9 9 9 9
16 17 17 17 17 17 17 17 16 16 16 16 17 16 16 15 14 12 11 10 10 10 9 9 9 9 9 9 10 10 10 10 10 9 10 10 10 10 10 10 9 9 9 9 9 9 9 9 9
16 17 17 17 17 17 17 17 17 16 17 16 17 17 16 15 15 13 12 11 10 10 9 9 9 9 10 10 10 10 10 11 10 10 10 10 10 10 9 10 10 10 10 10 9 9 10 9 8
16 17 17 17 17 17 17 17 17 17 17 16 17 17 16 16 15 14 12 11 10 10 10 9 9 10 10 10 10 10 10 11 11 11 11 11 11 10 10 10 9 10 10 10 10 9 9 9 9
16 17 17 17 17 17 17 17 17 16 16 17 17 17 16 16 15 15 14 13 12 11 10 10 10 10 10 10 10 10 11 11 10 11 10 10 10 11 10 10 10 10 10 10 10 10 10 9 9
16 17 17 18 17 18 17 17 17 17 17 17 16 16 16 15 15 15 14 14 14 12 11 10 10 10 10 10 11 11 11 11 11 11 11 11 11 11 11 10 10 10 10 10 10 10 10 10 10
18 17 18 18 18 18 18 17 17 17 17 16 16 16 16 15 15 14 14 13 14 14 12 12 11 11 11 11 11 11 11 11 11 11 11 11 11 11 11 11 10 10 10 10 11 10 10 10 10
18 18 18 18 18 18 18 17 17 17 17 16 16 15 15 15 14 14 14 13 13 13 13 12 12 11 10 10 10 11 11 11 11 11 11 11 11 11 11 11 11 10 10 10 10 11 11 11 10
17 18 18 18 19 19 18 17 17 17 17 16 15 15 15 15 14 13 13 13 12 12 12 12 11 11 11 11 11 11 11 11 12 11 11 11 11 11 11 10 10 10 10 10 10 10 10 10 10
18 18 18 18 18 18 18 17 17 17 17 17 16 15 15 14 13 13 13 12 12 12 12 12 12 11 12 12 12 12 12 11 11 11 11 11 11 11 11 10 10 11 11 10 10 10 10 10 10
18 18 18 18 18 18 18 17 17 17 17 17 16 15 15 13 13 13 13 13 12 12 10 10 11 11 12 12 12 11 11 12 12 12 12 11 11 11 11 10 10 10 10 10 10 10 10 10 10
17 17 17 18 18 18 18 17 16 16 16 16 15 15 15 14 14 13 13 13 12 12 11 11 10 11 11 11 11 11 12 12 12 12 12 11 11 11 11 11 10 10 10 10 10 9 10 10 10
17 17 17 18 18 18 18 17 16 16 16 15 15 15 15 14 14 14 14 13 12 11 11 10 10 11 11 11 11 11 11 12 12 12 11 11 11 11 11 11 10 10 10 10 10 10 10 9 9
17 17 17 17 17 17 18 17 15 15 15 15 15 14 14 14 14 14 14 13 12 10 11 11 10 11 10 11 11 11 12 12 12 12 12 12 11 11 11 10 11 11 10 10 10 10 10 9 9
17 17 17 17 17 16 18 17 16 15 16 15 15 14 14 14 13 13 13 13 13 12 11 12 12 11 11 11 12 12 12 12 12 12 12 12 12 12 11 11 11 11 11 11 10 10 10 10 9
17 17 16 14 12 13 17 17 17 16 16 16 15 14 14 13 12 11 12 12 12 12 12 12 12 11 11 11 11 11 11 11 12 12 12 12 12 12 12 11 10 10 10 10 10 10 10 10 10
16 16 16 14 11 14 17 15 16 17 15 15 14 13 13 12 11 11 11 11 11 11 11 11 11 10 10 10 10 10 10 10 10 11 11 11 11 11 11 12 11 11 10 10 10 10 10 10 10
17 16 16 16 15 15 15 14 15 15 14 14 13 13 12 12 12 11 11 10 10 10 10 10 10 11 11 11 10 10 10 10 10 9 9 10 10 10 11 11 12 11 11 10 9 10 10 10 11
16 16 16 16 12 13 15 15 14 14 14 13 13 13 12 12 12 11 11 11 11 11 10 10 9 8 8 8 9 9 9 9 9 9 9 9 9 9 9 10 11 11 11 11 10 10 10 10 11
16 16 15 15 15 11 9 14 15 15 15 14 14 13 13 12 12 12 11 11 11 11 10 10 9 8 7 7 7 6 7 8 8 9 9 9 9 9 9 9 10 10 11 11 11 10 10 10 10
16 16 15 15 14 14 14 15 14 15 14 14 13 13 13 13 12 11 11 11 10 10 9 9 9 9 8 8 8 7 7 5 7 6 8 8 8 8 9 9 9 9 9 10 10 10 10 10 10
Height
3176 3175 3177 3178 3181 3181 3182 3183 3180 3179 3178 3177 3176 3173 3169 3166 3168 3170 3168 3170 3171 3175 3177 3178 3181 3183 3186 3188 3189 3190 3192 3194 3196 3198 3201 3203 3205 3207 3208 3209 3211 3210 3213 3214 3215 3217 3218 3218 3218
3177 3177 3181 3180 3180 3181 3186 3185 3182 3182 3179 3178 3175 3175 3172 3166 3168 3167 3168 3168 3174 3177 3178 3180 3182 3185 3187 3190 3192 3191 3194 3197 3198 3202 3204 3205 3208 3210 3211 3213 3213 3214 3215 3216 3217 3219 3220 3220 3220
3182 3183 3184 3182 3184 3186 3187 3188 3184 3183 3182 3181 3175 3175 3172 3171 3169 3168 3169 3170 3175 3178 3179 3181 3183 3187 3190 3192 3194 3194 3196 3199 3202 3204 3207 3208 3211 3212 3214 3215 3216 3217 3218 3218 3218 3220 3222 3222 3223
3185 3187 3186 3186 3188 3190 3187 3183 3182 3185 3183 3182 3178 3174 3174 3173 3173 3171 3172 3174 3177 3179 3182 3183 3185 3189 3192 3194 3196 3197 3198 3203 3205 3207 3211 3212 3213 3214 3215 3217 3219 3219 3219 3221 3221 3221 3223 3224 3225
3188 3187 3187 3189 3188 3183 3182 3182 3181 3183 3182 3183 3182 3177 3175 3175 3176 3176 3176 3177 3180 3182 3184 3186 3188 3191 3194 3197 3198 3200 3201 3205 3208 3211 3211 3214 3215 3216 3217 3219 3219 3220 3221 3222 3223 3224 3225 3226 3226
3192 3193 3188 3186 3189 3185 3183 3184 3184 3184 3183 3183 3182 3179 3177 3180 3181 3179 3180 3181 3184 3186 3187 3189 3191 3194 3196 3199 3201 3202 3203 3206 3210 3212 3214 3216 3217 3218 3219 3220 3221 3221 3223 3223 3224 3224 3226 3226 3228
3194 3195 3189 3186 3185 3184 3183 3185 3186 3186 3186 3185 3185 3182 3181 3183 3184 3182 3184 3186 3187 3189 3191 3193 3195 3197 3199 3202 3204 3206 3209 3210 3213 3214 3216 3217 3218 3219 3221 3222 3223 3223 3224 3224 3225 3226 3226 3227 3228
3192 3195 3193 3190 3186 3189 3187 3188 3188 3187 3186 3185 3186 3185 3184 3185 3185 3185 3187 3188 3189 3192 3194 3196 3198 3200 3202 3204 3206 3208 3210 3213 3215 3214 3218 3218 3219 3221 3221 3223 3223 3225 3225 3226 3226 3227 3227 3228 3229
3193 3191 3188 3190 3189 3189 3188 3188 3189 3190 3187 3186 3185 3186 3185 3184 3185 3186 3187 3188 3191 3194 3196 3198 3201 3202 3205 3207 3209 3211 3212 3214 3216 3218 3218 3219 3220 3220 3221 3223 3224 3224 3226 3226 3227 3228 3228 3229 3230
3192 3191 3190 3191 3190 3190 3191 3189 3189 3190 3189 3189 3186 3185 3187 3187 3188 3188 3188 3190 3193 3195 3198 3201 3203 3204 3206 3208 3210 3212 3214 3215 3218 3218 3219 3219 3220 3221 3223 3224 3224 3225 3225 3226 3228 3229 3229 3231 3231
3191 3190 3191 3190 3189 3189 3189 3190 3188 3189 3190 3190 3188 3187 3188 3189 3189 3190 3190 3192 3195 3198 3200 3202 3205 3207 3209 3211 3213 3213 3214 3216 3218 3218 3219 3219 3221 3222 3223 3224 3224 3225 3225 3226 3227 3229 3229 3230 3231
3189 3189 3189 3189 3188 3187 3187 3188 3187 3187 3188 3190 3190 3189 3191 3193 3192 3191 3191 3193 3195 3199 3201 3203 3206 3209 3210 3213 3213 3214 3214 3217 3217 3218 3220 3221 3222 3222 3223 3224 3225 3225 3225 3226 3226 3228 3228 3229 3231
3187 3187 3186 3187 3187 3187 3186 3187 3189 3188 3189 3191 3191 3191 3192 3194 3194 3193 3194 3196 3197 3199 3201 3204 3206 3208 3211 3213 3214 3215 3216 3217 3218 3220 3220 3222 3221 3222 3222 3224 3224 3224 3224 3225 3226 3227 3228 3229 3230
3185 3186 3184 3186 3185 3187 3186 3186 3187 3188 3188 3189 3190 3191 3191 3192 3195 3195 3196 3196 3198 3200 3202 3204 3206 3208 3210 3212 3214 3216 3217 3218 3219 3220 3221 3222 3222 3222 3222 3222 3223 3223 3224 3224 3225 3226 3227 3228 3228
3186 3185 3184 3183 3183 3185 3185 3186 3184 3186 3186 3187 3189 3192 3192 3192 3193 3196 3199 3200 3200 3202 3203 3205 3207 3209 3210 3211 3213 3215 3216 3217 3218 3219 3220 3221 3222 3222 3223 3224 3225 3224 3224 3223 3223 3224 3225 3226 3226
3184 3184 3184 3183 3183 3185 3186 3188 3187 3181 3185 3186 3189 3191 3192 3194 3195 3197 3199 3202 3201 3203 3205 3205 3206 3208 3209 3210 3212 3213 3214 3215 3215 3216 3217 3219 3220 3222 3222 3223 3223 3223 3223 3223 3223 3223 3223 3224 3225
3181 3179 3179 3183 3183 3183 3185 3187 3189 3188 3183 3185 3187 3190 3192 3195 3196 3198 3200 3201 3202 3204 3205 3206 3207 3207 3208 3209 3210 3211 3212 3213 3213 3214 3215 3217 3218 3218 3219 3220 3221 3221 3221 3222 3222 3221 3222 3222 3222
3182 3182 3182 3183 3183 3182 3184 3186 3187 3189 3188 3186 3187 3189 3192 3195 3197 3198 3199 3201 3203 3203 3206 3207 3207 3207 3208 3209 3210 3210 3211 3213 3212 3212 3212 3213 3215 3215 3216 3217 3218 3219 3221 3221 3220 3220 3220 3221 3219
3183 3182 3184 3184 3184 3180 3183 3185 3186 3186 3186 3188 3188 3189 3191 3194 3196 3198 3199 3200 3201 3203 3204 3206 3207 3207 3208 3209 3210 3210 3211 3211 3211 3212 3214 3214 3212 3212 3213 3214 3215 3216 3216 3217 3218 3219 3219 3219 3218
3182 3181 3182 3182 3182 3182 3183 3185 3185 3185 3185 3186 3189 3189 3190 3192 3196 3198 3199 3199 3201 3202 3202 3203 3204 3207 3207 3207 3208 3208 3209 3210 3210 3210 3210 3210 3211 3211 3211 3211 3211 3211 3212 3213 3214 3215 3216 3217 3217
3182 3180 3181 3182 3181 3182 3183 3186 3185 3185 3184 3185 3187 3189 3190 3190 3192 3195 3197 3196 3198 3199 3200 3200 3201 3203 3205 3206 3206 3207 3208 3207 3208 3208 3208 3210 3208 3208 3208 3208 3207 3206 3207 3208 3210 3211 3211 3213 3213
3180 3180 3180 3179 3180 3180 3181 3184 3184 3182 3183 3184 3186 3188 3190 3191 3191 3192 3191 3195 3196 3195 3198 3197 3198 3200 3202 3204 3203 3205 3205 3206 3206 3205 3205 3204 3205 3205 3205 3203 3203 3202 3202 3203 3205 3205 3206 3207 3207
3180 3179 3179 3178 3178 3178 3177 3179 3180 3181 3181 3183 3184 3186 3189 3191 3192 3192 3193 3193 3195 3194 3197 3198 3199 3199 3200 3201 3201 3201 3201 3202 3202 3201 3200 3200 3198 3199 3199 3200 3199 3197 3197 3198 3200 3200 3201 3201 3201
3178 3178 3178 3176 3176 3176 3173 3176 3175 3175 3177 3180 3183 3185 3187 3191 3191 3190 3191 3193 3194 3196 3197 3198 3198 3198 3198 3197 3196 3196 3197 3197 3197 3196 3195 3195 3194 3195 3193 3194 3194 3194 3193 3193 3194 3195 3195 3196 3197
3178 3177 3177 3179 3178 3177 3174 3172 3172 3174 3175 3176 3179 3184 3187 3187 3187 3188 3189 3190 3192 3194 3196 3198 3198 3197 3195 3194 3193 3192 3192 3192 3191 3190 3189 3188 3188 3188 3188 3188 3188 3188 3189 3189 3189 3189 3190 3191 3192
3178 3178 3179 3183 3184 3176 3172 3171 3171 3170 3175 3179 3181 3182 3183 3184 3185 3186 3186 3188 3190 3192 3194 3195 3195 3193 3192 3190 3188 3187 3187 3185 3185 3184 3183 3182 3181 3181 3181 3180 3179 3178 3180 3182 3182 3180 3182 3182 3184
3177 3178 3179 3179 3179 3177 3176 3177 3175 3176 3178 3178 3180 3179 3181 3182 3183 3183 3183 3183 3183 3183 3183 3183 3184 3186 3186 3184 3182 3180 3179 3178 3177 3175 3174 3173 3173 3173 3172 3172 3171 3170 3170 3169 3172 3172 3173 3173 3176
3176 3177 3177 3177 3180 3180 3176 3177 3175 3177 3176 3178 3178 3180 3181 3181 3180 3180 3180 3181 3180 3180 3180 3179 3177 3176 3175 3174 3173 3172 3170 3168 3166 3165 3164 3162 3163 3163 3162 3161 3161 3161 3160 3159 3162 3164 3165 3165 3168
3174 3174 3175 3176 3177 3179 3182 3178 3175 3178 3177 3177 3178 3179 3179 3179 3180 3180 3180 3181 3181 3180 3180 3178 3176 3173 3171 3168 3164 3161 3160 3159 3156 3155 3154 3153 3152 3151 3151 3151 3152 3152 3151 3151 3150 3153 3156 3158 3160
3171 3171 3172 3173 3176 3176 3177 3179 3176 3176 3176 3178 3178 3178 3179 3180 3179 3178 3178 3178 3178 3177 3176 3174 3170 3168 3164 3160 3157 3154 3150 3148 3145 3143 3142 3141 3139 3140 3140 3140 3140 3141 3142 3141 3139 3141 3144 3147 3151
Wind_Speed
17 22 19 20 17 27 29 18 19 15 23 21 23 18 14 12 3 7 13 18 17 13 12 14 19 28 26 25 27 26 25 26 27 30 30 27 25 23 22 22 20 20 18 17 15 12 12 12 12
20 20 14 14 14 27 21 15 18 15 17 16 23 19 18 20 11 13 12 22 15 11 10 16 18 22 26 27 26 28 25 24 26 29 28 26 24 22 20 20 20 19 17 16 13 11 10 11 12
17 6 2 4 5 14 21 9 10 7 13 13 22 22 24 20 14 16 17 21 17 13 15 18 21 26 22 28 25 27 25 24 25 26 25 25 22 20 19 18 17 16 15 13 13 11 9 10 11
13 9 4 5 10 5 20 16 16 9 14 15 22 23 23 19 15 16 17 19 18 17 20 20 22 30 29 26 25 25 24 22 23 24 22 20 18 16 15 13 11 12 12 11 10 11 10 10 11
17 21 10 7 11 16 14 14 16 13 13 16 22 23 23 15 14 16 18 19 16 17 17 19 26 28 26 25 27 25 23 22 21 21 20 18 16 14 12 11 10 9 10 11 10 10 10 10 10
26 19 18 9 6 11 8 14 16 15 17 15 22 24 21 11 12 19 20 20 17 15 21 25 31 30 29 26 23 22 23 19 18 18 17 15 13 11 9 8 7 8 8 8 9 10 10 10 10
5 21 20 16 5 24 8 14 16 11 13 13 17 23 21 15 16 21 18 17 18 17 22 24 26 25 24 22 20 19 19 16 16 14 12 11 11 9 7 7 5 6 6 8 8 10 10 10 10
7 9 8 1 18 9 4 7 11 10 14 12 16 18 21 24 20 21 18 16 16 15 17 23 24 21 20 20 18 16 15 11 10 9 10 9 8 8 7 5 6 5 6 6 7 9 10 10 11
12 17 14 7 9 10 11 7 9 9 13 9 14 16 18 23 18 16 18 17 16 16 14 19 22 21 21 20 18 15 15 13 10 9 8 8 8 7 7 6 5 5 5 5 6 8 10 10 11
16 17 11 7 6 2 4 10 8 5 8 7 12 13 12 16 22 15 16 17 16 18 19 19 21 20 19 15 10 7 9 9 6 7 6 5 4 5 5 6 6 5 6 7 7 8 10 10 10
13 2 6 7 10 8 4 1 7 10 6 7 13 15 13 11 16 19 16 13 15 17 19 20 18 18 17 14 13 5 7 5 5 8 5 5 3 5 6 6 6 6 6 7 8 10 11 12 11
6 2 5 4 8 4 1 4 0 5 8 6 10 15 15 8 12 17 19 17 19 17 17 16 17 15 13 16 14 12 14 7 6 6 7 5 5 3 3 5 6 7 7 8 8 10 12 13 14
3 3 6 5 4 5 7 6 7 5 2 8 8 10 12 13 14 11 15 17 16 17 17 16 15 13 10 12 11 11 16 11 10 9 12 7 5 3 5 6 6 6 6 7 9 10 12 14 13
2 3 1 4 2 5 6 8 7 7 7 3 1 4 10 11 14 10 10 13 17 16 17 15 13 12 12 12 13 13 14 12 8 8 7 9 11 11 9 5 6 6 6 8 9 11 13 14 14
6 4 7 6 7 11 10 10 3 6 2 3 6 5 6 7 11 12 8 9 13 19 16 17 15 14 12 11 10 12 15 16 15 14 12 12 10 8 10 7 7 9 7 8 9 12 14 16 15
7 8 6 5 5 7 5 12 10 4 5 4 4 6 4 4 8 10 8 6 3 9 13 12 14 14 12 10 10 9 8 9 9 8 7 10 14 15 15 12 12 9 9 8 10 12 14 13 14
16 21 7 9 4 9 10 16 12 8 1 4 3 7 3 2 3 6 7 5 3 0 3 6 10 12 12 11 12 12 12 11 9 7 7 6 7 10 11 10 12 11 10 11 10 9 12 13 14
15 14 13 14 10 2 15 15 14 16 9 3 8 6 5 2 3 3 5 4 5 5 5 6 6 9 11 12 12 12 13 14 12 11 9 9 8 8 10 10 11 10 11 10 11 12 11 13 11
8 7 4 12 6 7 12 15 12 16 16 13 4 6 7 5 5 3 2 5 6 7 8 8 9 7 7 7 9 8 4 5 5 7 10 12 13 12 12 13 14 13 13 12 12 13 14 13 13
5 6 7 11 7 4 7 13 17 16 14 11 8 9 8 12 8 5 5 7 7 8 10 9 8 11 11 8 7 8 8 7 9 10 9 11 13 13 14 16 17 17 16 16 16 16 16 17 18
5 8 3 3 1 2 3 19 20 16 14 11 12 8 10 10 10 10 7 6 8 8 7 5 7 8 11 13 14 14 11 6 7 14 14 11 11 15 19 19 20 20 21 20 20 20 19 19 22
3 5 1 1 3 5 8 4 25 25 19 18 15 14 12 13 12 10 10 8 5 2 2 7 10 11 12 13 13 14 14 13 14 15 18 20 20 18 19 19 22 23 22 22 23 23 21 21 23
6 9 10 8 8 10 14 3 29 30 24 22 19 17 16 15 11 8 9 6 5 8 5 6 10 8 10 17 18 17 19 17 13 13 15 20 19 23 24 23 23 23 22 23 22 24 26 26 27
7 5 8 10 9 5 11 8 17 35 28 26 22 17 14 13 12 9 7 4 5 7 8 8 6 7 9 12 14 17 17 18 18 19 20 22 21 22 23 20 23 22 21 20 21 23 26 26 28
3 10 5 5 4 6 3 5 3 32 29 25 25 18 11 5 9 9 7 4 3 4 5 10 15 15 13 14 15 17 18 20 21 22 22 21 22 24 24 25 28 26 27 27 24 25 24 25 27
5 1 3 2 1 8 8 3 4 15 30 18 12 9 9 11 11 9 8 8 10 10 12 19 23 19 19 18 17 20 22 25 26 23 24 25 25 26 25 26 30 33 34 34 30 26 27 25 26
1 2 0 2 2 3 3 14 12 20 17 15 15 13 15 15 13 11 9 9 12 14 21 26 34 30 25 27 29 28 29 28 29 31 33 34 33 32 32 31 30 34 36 41 35 35 33 29 29
5 2 4 2 2 2 3 4 11 25 22 21 18 17 17 15 13 11 13 15 17 23 27 28 30 31 34 35 30 25 25 28 31 33 35 36 35 37 38 37 35 34 38 43 43 40 33 33 33
5 7 5 1 2 5 1 3 9 12 15 17 17 15 15 14 13 14 15 17 20 24 26 28 32 31 32 37 33 35 33 30 35 36 38 38 38 36 37 38 39 40 40 42 50 48 48 37 36
7 11 11 9 5 3 4 6 9 5 17 20 18 16 15 17 17 18 19 21 24 25 26 28 29 34 35 33 36 35 34 37 36 43 36 35 40 41 42 41 40 39 42 44 48 50 51 49 48
Wind_Direction
65 87 97 104 84 83 77 72 98 84 69 71 62 65 79 81 220 126 131 135 124 139 136 139 137 141 145 144 139 133 131 133 131 136 136 131 125 125 125 121 116 111 113 105 106 112 113 116 116
77 58 103 112 106 82 90 97 78 83 69 59 64 67 74 84 87 92 102 124 134 143 145 154 158 142 150 148 143 133 131 134 135 138 141 135 131 122 122 124 116 112 110 107 107 113 116 120 120
95 108 81 148 78 83 105 80 126 79 39 34 60 63 66 65 81 81 111 120 131 137 134 141 153 164 155 153 146 134 133 137 141 140 143 143 142 135 125 120 118 113 110 109 113 118 122 124 127
154 98 76 97 81 114 114 89 153 116 50 64 53 62 66 62 68 84 109 123 131 136 133 133 139 156 146 143 142 134 131 139 141 142 144 145 144 142 139 137 125 116 110 109 113 116 126 129 129
108 81 53 100 122 148 142 76 101 116 65 76 47 65 69 75 79 95 105 119 130 136 146 146 143 153 162 147 149 137 135 139 142 148 148 148 147 147 146 141 137 124 120 117 116 118 125 123 121
96 40 27 24 119 158 93 99 109 107 49 58 50 56 78 73 98 104 106 113 122 126 137 142 141 142 144 139 136 138 137 135 142 152 155 154 151 151 152 148 146 131 130 122 125 130 137 132 130
60 38 16 353 54 182 107 119 110 48 47 60 50 55 74 104 114 109 108 112 115 125 143 144 142 142 142 141 138 138 135 138 140 144 151 158 153 157 164 163 160 153 144 136 140 143 149 147 141
299 283 305 354 81 103 92 107 131 61 56 50 55 55 64 93 126 116 118 112 112 126 144 159 147 139 144 143 146 138 134 129 144 160 166 162 166 172 175 183 164 163 147 144 146 152 160 156 147
322 289 302 303 70 55 65 102 142 98 48 70 78 58 50 78 111 129 127 128 127 131 135 154 157 145 142 133 126 131 136 147 162 166 164 170 184 185 185 191 194 176 169 161 158 160 168 160 157
286 285 316 65 59 101 134 32 140 125 86 87 69 72 55 66 91 117 127 135 141 133 137 145 166 170 151 150 145 127 144 145 165 161 162 153 182 196 200 206 191 179 173 161 165 170 176 172 170
328 317 351 3 347 337 281 356 121 132 115 72 42 40 48 71 87 112 128 138 148 146 146 137 137 154 182 159 172 167 134 165 175 156 131 126 182 194 189 207 196 191 183 181 175 180 182 183 188
9 1 309 310 315 328 334 216 115 43 77 74 42 32 52 92 82 102 130 144 167 164 161 160 159 153 154 180 196 173 148 165 160 143 151 130 164 163 217 208 207 202 196 196 191 194 192 191 197
61 48 293 304 306 65 72 159 157 232 129 126 42 27 51 53 53 99 123 145 152 166 174 181 190 202 203 194 189 182 170 158 172 178 164 176 128 263 227 227 228 218 212 214 211 204 203 205 203
216 239 229 182 127 97 108 131 182 129 139 141 283 65 39 31 41 67 108 120 130 152 166 171 185 193 199 206 206 195 192 211 239 226 204 212 213 214 219 214 244 240 219 224 230 216 218 212 208
331 288 207 201 157 125 138 143 128 107 169 242 193 142 49 36 36 45 103 91 107 132 161 171 173 171 178 186 190 203 220 236 245 246 248 244 246 232 256 249 237 259 253 245 238 244 232 225 219
333 323 245 186 171 179 170 135 127 239 94 99 223 189 157 48 45 36 37 86 70 107 138 158 166 165 173 174 183 182 196 198 216 239 242 244 249 238 250 269 282 271 274 264 249 235 229 229 235
22 11 186 183 161 110 172 148 144 160 196 93 147 208 187 160 76 19 8 6 21 206 122 145 161 172 180 189 193 193 197 199 193 209 211 225 223 236 256 265 271 279 275 275 268 248 230 230 231
11 38 138 158 124 59 146 143 156 170 188 131 146 173 191 181 84 15 353 337 328 315 234 216 182 186 188 192 203 210 202 189 186 197 207 216 229 235 249 257 263 266 273 270 268 265 250 237 235
1 339 47 213 155 119 142 158 163 172 186 186 193 147 171 154 157 228 274 286 279 278 274 235 227 215 218 203 204 216 211 243 237 205 223 230 220 225 234 247 257 261 262 264 263 258 258 248 239
347 343 6 147 59 109 132 175 170 185 189 203 195 189 167 165 185 228 243 258 265 272 294 268 253 239 227 225 226 231 220 227 235 242 217 227 240 242 234 231 243 255 256 260 260 259 254 253 254
347 15 21 51 323 150 338 164 169 177 182 188 173 176 204 225 210 213 238 265 251 263 267 319 298 263 234 231 238 235 231 252 280 279 277 265 237 246 243 243 238 242 253 255 257 258 253 252 255
192 321 345 313 340 293 295 189 178 179 179 183 185 190 197 216 226 245 265 268 257 188 284 289 289 283 249 228 234 238 240 270 286 275 267 274 280 255 252 246 249 250 250 250 253 255 256 250 253
286 281 331 279 281 301 253 262 187 181 182 191 202 201 205 217 226 251 253 274 241 237 262 275 272 286 244 230 248 239 245 256 252 260 278 270 266 270 266 264 256 255 260 264 256 258 259 256 255
26 326 310 318 279 298 290 291 194 188 207 191 197 202 206 196 214 208 212 243 276 253 255 268 261 257 245 243 244 248 252 245 259 269 275 277 274 271 274 263 251 255 257 265 275 268 262 260 258
296 2 359 21 7 230 28 201 155 202 213 218 195 191 196 198 195 190 190 206 249 241 276 298 287 270 253 251 255 256 257 256 256 259 264 268 273 277 274 270 259 251 251 254 260 266 266 264 262
209 103 100 158 297 284 355 76 223 223 197 192 188 178 170 184 198 210 216 215 220 246 287 313 321 275 273 267 268 274 274 272 266 258 261 263 264 268 269 270 263 257 254 261 251 251 262 262 260
195 303 275 151 281 322 73 106 122 158 166 178 181 181 184 199 219 242 269 297 304 313 319 320 327 326 299 282 287 281 272 270 268 268 267 262 261 263 262 262 264 266 259 251 254 260 255 252 257
304 327 255 264 117 276 337 217 179 163 167 179 190 198 200 216 233 257 284 294 301 306 316 318 314 307 301 301 295 283 274 269 264 264 264 265 265 264 262 260 259 261 261 261 255 252 257 251 252
317 256 226 100 95 145 10 344 169 196 212 214 207 210 217 228 248 267 268 275 286 294 301 300 302 302 298 293 286 288 284 275 274 267 262 263 264 262 262 261 257 257 258 260 261 260 259 256 251
301 246 218 214 207 258 175 226 212 239 206 201 200 211 237 252 250 256 269 278 283 284 285 301 311 307 303 292 286 284 285 282 282 280 274 268 265 263 261 260 257 258 260 257 259 262 263 260 256